N5JXS Weather Reports


time (UTC)temp
C
wind
direction
speed
KPH
gust
KPH
rain 1hr
cm
rain 24hr
cm
rain mn
cm
humidity
%
barometer
mb
20260505201840 1 355 1.6 3.2 0.18 0.36 0.36 98 1014.3
20260505201338 1 317 1.6 1.6 0.00 0.33 0.33 98 1014.5
20260505200836 1 357 0.0 1.6 0.00 0.33 0.33 98 1014.4
20260505200332 1 27 3.2 4.8 0.18 0.33 0.33 98 1014.5
20260505195828 1 12 1.6 3.2 0.30 0.33 0.33 98 1014.5
20260505195325 1 13 1.6 1.6 0.13 0.30 0.30 98 1014.4
20260505194822 1 29 0.0 1.6 0.18 0.28 0.28 98 1014.5
20260505194320 1 355 0.0 1.6 0.18 0.28 0.28 97 1014.6
20260505193814 1 7 0.0 0.0 0.13 0.25 0.25 97 1014.5
20260505193313 1 14 0.0 0.0 0.13 0.25 0.25 97 1014.8
20260505192810 1 41 0.0 1.6 0.18 0.23 0.23 97 1014.8
20260505192310 1 24 1.6 1.6 0.18 0.23 0.23 97 1015.0
20260505191806 0 346 1.6 1.6 0.00 0.20 0.20 97 1014.9
20260505191304 0 16 1.6 1.6 0.13 0.20 0.20 97 1014.8
20260505190800 1 16 1.6 1.6 0.13 0.20 0.20 97 1015.0
20260505190256 0 357 0.0 1.6 0.00 0.18 0.18 97 1015.0
20260505185752 0 6 0.0 0.0 0.00 0.18 0.18 97 1014.8
20260505185248 0 13 0.0 0.0 0.00 0.18 0.18 97 1014.9
20260505184744 0 13 0.0 0.0 0.00 0.18 0.18 97 1015.0
20260505184242 0 29 0.0 0.0 0.00 0.18 0.18 97 1015.0
20260505183739 0 14 0.0 1.6 0.00 0.18 0.18 97 1015.0
20260505183236 0 27 0.0 0.0 0.00 0.18 0.18 97 1015.3
20260505182732 0 30 0.0 0.0 0.18 0.18 0.18 97 1015.3
20260505182229 0 21 0.0 0.0 0.18 0.18 0.18 97 1015.3
20260505181725 0 12 0.0 0.0 0.00 0.15 0.15 97 1015.3
20260505181223 0 13 0.0 0.0 0.00 0.15 0.15 97 1015.5
20260505180720 0 41 1.6 3.2 0.00 0.15 0.15 97 1015.4
20260505180216 0 28 0.0 1.6 0.00 0.15 0.15 97 1015.6
20260505175713 0 38 0.0 0.0 0.13 0.15 0.15 97 1015.6
20260505175209 0 36 0.0 1.6 0.13 0.15 0.15 97 1015.5
20260505174706 0 345 0.0 0.0 0.00 0.13 0.13 97 1015.5
20260505174203 0 89 1.6 1.6 0.00 0.13 0.13 97 1015.6
20260505173659 0 57 1.6 1.6 0.18 0.13 0.13 97 1015.8
20260505173155 0 42 0.0 0.0 0.18 0.13 0.13 97 1015.5
20260505172653 0 37 0.0 1.6 0.00 0.10 0.10 97 1015.9
20260505172150 0 53 0.0 1.6 0.00 0.10 0.10 97 1015.9
20260505171649 0 33 0.0 0.0 0.13 0.10 0.10 97 1015.8
20260505171147 0 123 1.6 1.6 0.13 0.10 0.10 97 1016.0
20260505170644 0 42 1.6 1.6 0.00 0.08 0.08 97 1016.0
20260505170140 0 66 1.6 1.6 0.00 0.08 0.08 97 1015.9
20260505165635 0 132 1.6 3.2 0.00 0.08 0.08 97 1015.9
20260505165132 0 54 0.0 0.0 0.00 0.08 0.08 97 1016.0
20260505164627 0 320 1.6 1.6 0.00 0.08 0.08 97 1016.3
20260505164125 0 8 1.6 1.6 0.00 0.08 0.08 97 1015.9
20260505163623 0 71 1.6 1.6 0.00 0.08 0.08 97 1015.9
20260505163120 0 61 1.6 1.6 0.00 0.08 0.08 97 1016.0
20260505162617 0 50 0.0 0.0 0.18 0.08 0.08 97 1015.9
20260505162115 0 39 0.0 1.6 0.18 0.08 0.08 97 1015.9
20260505161612 0 87 0.0 1.6 0.00 0.05 0.05 97 1016.1
20260505161109 0 34 1.6 3.2 0.00 0.05 0.05 97 1016.1
20260505160607 0 117 3.2 3.2 0.00 0.05 0.05 97 1016.0
20260505160104 0 95 1.6 1.6 0.00 0.05 0.05 97 1016.3
20260505153044 0 203 1.6 3.2 0.00 0.03 0.03 96 1016.1
20260505152540 0 100 3.2 4.8 0.00 0.03 0.03 96 1016.1
20260505152036 0 112 3.2 4.8 0.00 0.03 0.03 96 1016.4
20260505151531 0 60 1.6 1.6 0.00 0.03 0.03 96 1016.3
20260505151029 0 88 1.6 1.6 0.00 0.03 0.03 96 1016.1
20260505150525 0 67 1.6 1.6 0.00 0.03 0.03 96 1015.9
20260505140450 0 46 0.0 0.0 0.00 0.03 0.03 96 1016.5
20260505124903 3 270 1.6 1.6 0.00 0.03 0.03 96 1015.5
20260505124401 3 35 0.0 1.6 0.00 0.03 0.03 97 1015.4
20260505123856 3 16 0.0 0.0 0.00 0.03 0.03 97 1015.4
20260505123353 3 24 0.0 0.0 0.00 0.03 0.03 96 1015.3
20260505122849 3 9 0.0 0.0 0.00 0.03 0.03 97 1015.3
20260505122347 3 8 0.0 0.0 0.00 0.03 0.03 97 1014.9
20260505121843 3 39 0.0 0.0 0.00 0.03 0.03 97 1014.6
20260505121340 2 51 0.0 0.0 0.00 0.03 0.03 97 1014.8
20260505120836 3 52 1.6 1.6 0.00 0.03 0.03 97 1014.9
20260505120332 2 8 0.0 0.0 0.00 0.03 0.03 97 1015.0
20260505115831 3 3 0.0 0.0 0.00 0.03 0.03 97 1014.9
20260505115329 3 0 0.0 0.0 0.00 0.03 0.03 97 1014.6
20260505114826 3 12 0.0 0.0 0.00 0.03 0.03 97 1014.5
20260505114323 3 31 0.0 0.0 0.00 0.03 0.03 97 1014.9
20260505113819 3 358 0.0 0.0 0.00 0.03 0.03 97 1014.5
20260505113315 3 353 0.0 0.0 0.00 0.03 0.03 97 1014.6
20260505112811 3 355 0.0 0.0 0.00 0.03 0.03 97 1014.4
20260505112309 3 12 0.0 0.0 0.00 0.03 0.03 97 1014.4
20260505111805 3 358 0.0 0.0 0.00 0.03 0.03 97 1014.4
20260505111300 3 342 0.0 0.0 0.00 0.03 0.03 97 1014.4
20260505110756 3 358 0.0 0.0 0.00 0.03 0.03 97 1014.4
20260505110254 3 354 0.0 1.6 0.00 0.03 0.03 97 1014.6
20260505101728 3 289 1.6 1.6 0.00 0.03 0.03 97 1014.1
20260505101224 3 342 0.0 0.0 0.00 0.03 0.03 97 1014.3
20260505100721 3 17 0.0 0.0 0.00 0.03 0.03 97 1014.3
20260505100218 3 27 0.0 0.0 0.00 0.03 0.03 97 1014.4
20260505095713 3 40 0.0 0.0 0.00 0.03 0.03 97 1014.1
20260505095211 3 13 0.0 0.0 0.00 0.03 0.03 97 1014.1
20260505094706 3 12 0.0 0.0 0.00 0.03 0.03 96 1014.3
20260505094203 3 12 0.0 0.0 0.00 0.03 0.03 96 1014.5
20260505093659 3 12 0.0 0.0 0.00 0.03 0.03 96 1014.5
20260505093157 3 13 0.0 0.0 0.00 0.03 0.03 96 1014.3
20260505092654 4 14 0.0 0.0 0.00 0.03 0.03 96 1014.1
20260505092152 4 17 0.0 0.0 0.00 0.03 0.03 96 1014.3
20260505091649 4 330 1.6 1.6 0.00 0.03 0.03 96 1014.3
20260505091147 4 4 0.0 1.6 0.00 0.03 0.03 96 1014.4
20260505090644 4 44 0.0 0.0 0.00 0.03 0.03 96 1014.1
20260505090143 4 52 0.0 1.6 0.00 0.03 0.03 96 1014.4
20260505085639 4 54 0.0 0.0 0.00 0.03 0.03 96 1014.4
20260505085138 5 70 1.6 1.6 0.00 0.03 0.03 96 1014.5
20260505084635 5 53 0.0 0.0 0.00 0.03 0.03 96 1014.5
20260505084133 5 52 0.0 1.6 0.00 0.03 0.03 96 1014.8
20260505083631 5 53 0.0 1.6 0.00 0.03 0.03 96 1014.6
20260505083127 5 53 0.0 0.0 0.00 0.03 0.03 96 1015.0
20260505082623 5 52 0.0 0.0 0.00 0.03 0.03 96 1015.0
20260505082120 5 52 0.0 0.0 0.00 0.03 0.03 96 1015.3
20260505081616 5 52 0.0 0.0 0.00 0.03 0.03 96 1014.9
20260505081114 5 52 0.0 0.0 0.00 0.03 0.03 95 1015.0
20260505080610 5 52 0.0 0.0 0.00 0.03 0.03 95 1014.9
20260505080106 5 52 0.0 1.6 0.00 0.03 0.03 95 1015.3
20260505075602 5 52 0.0 1.6 0.00 0.03 0.03 95 1015.1
20260505075059 5 51 0.0 0.0 0.00 0.03 0.03 95 1015.4
20260505074556 5 51 0.0 0.0 0.00 0.03 0.03 95 1015.4
20260505074053 5 51 0.0 0.0 0.00 0.03 0.03 95 1015.4
20260505073550 5 51 0.0 0.0 0.00 0.03 0.03 95 1015.3
20260505073049 5 51 0.0 0.0 0.00 0.03 0.03 95 1015.6
20260505072544 5 50 0.0 0.0 0.00 0.03 0.03 95 1015.5
20260505072041 5 50 0.0 0.0 0.00 0.03 0.03 94 1015.8
20260505071536 5 51 0.0 0.0 0.00 0.03 0.03 94 1015.4
20260505071035 5 50 0.0 0.0 0.00 0.03 0.03 94 1015.6
20260505070532 5 51 0.0 0.0 0.00 0.03 0.03 94 1015.5
20260505070028 5 50 0.0 0.0 0.00 0.03 0.03 94 1015.5
20260505065523 5 30 0.0 0.0 0.00 0.03 0.03 94 1015.9
20260505065020 5 23 0.0 0.0 0.00 0.03 0.03 94 1015.8
20260505064517 5 23 0.0 0.0 0.00 0.03 0.03 93 1015.8
20260505064016 5 22 0.0 0.0 0.00 0.03 0.03 93 1015.5
20260505063513 5 22 0.0 0.0 0.00 0.03 0.03 93 1015.9
20260505063008 5 22 0.0 0.0 0.00 0.03 0.03 93 1015.5
20260505062505 5 22 0.0 0.0 0.00 0.03 0.03 93 1015.5
20260505062003 5 23 0.0 0.0 0.00 0.03 0.03 92 1015.5
20260505061500 5 21 0.0 0.0 0.00 0.03 0.03 92 1015.6
20260505060957 5 353 0.0 0.0 0.18 0.03 0.03 92 1015.6
20260505060455 5 6 0.0 0.0 0.18 0.03 0.03 91 1015.9
20260505055951 5 4 0.0 0.0 0.00 0.05 0.05 91 1016.0
20260505055447 5 356 1.6 1.6 0.00 0.05 0.05 90 1016.3
20260505054944 5 21 0.0 0.0 0.18 0.05 0.05 89 1016.1
20260505054441 5 28 0.0 1.6 0.18 0.05 0.05 89 1015.8
20260505053939 5 25 0.0 0.0 0.00 0.03 0.03 87 1016.0
20260505053436 5 48 0.0 1.6 0.00 0.03 0.03 87 1016.0
20260505052932 5 71 1.6 1.6 0.00 0.03 0.03 87 1016.0
20260505052429 5 345 0.0 0.0 0.00 0.03 0.03 86 1015.9
20260505051927 5 31 0.0 0.0 0.00 0.03 0.03 86 1016.0
20260505051424 5 347 0.0 0.0 0.00 0.03 0.03 86 1016.1
20260505050922 5 319 1.6 1.6 0.00 0.03 0.03 86 1015.9
20260505050420 5 7 0.0 1.6 0.00 0.03 0.03 86 1015.8
20260505041347 5 13 0.0 0.0 0.00 0.03 0.03 85 1015.1
20260505040844 5 136 3.2 3.2 0.00 0.03 0.03 85 1015.0
20260505040342 5 58 1.6 1.6 0.00 0.03 0.03 85 1014.9
20260505035838 6 99 1.6 1.6 0.00 0.03 0.03 85 1015.0
20260505035334 6 195 4.8 4.8 0.00 0.03 0.03 85 1014.9
20260505034832 6 109 4.8 4.8 0.00 0.03 0.03 84 1014.6
20260505034328 6 69 1.6 1.6 0.00 0.03 0.03 85 1014.6
20260505033826 6 154 1.6 3.2 0.00 0.03 0.03 85 1015.0
20260505033322 6 78 1.6 1.6 0.00 0.03 0.03 85 1015.1
20260505032821 6 39 0.0 1.6 0.00 0.03 0.03 86 1015.3
20260505032316 6 54 1.6 1.6 0.00 0.03 0.03 86 1015.1
20260505031814 6 34 0.0 0.0 0.00 0.03 0.03 86 1015.1
20260505031310 6 141 1.6 3.2 0.00 0.03 0.03 86 1015.0
20260505030808 6 60 1.6 1.6 0.00 0.03 0.03 86 1014.9
20260505030304 6 31 0.0 1.6 0.00 0.03 0.03 85 1015.1
20260505025759 6 49 3.2 3.2 0.00 0.03 0.03 86 1015.3
20260505025257 6 140 1.6 3.2 0.00 0.03 0.03 86 1015.1
20260505024755 6 34 0.0 0.0 0.00 0.03 0.03 87 1015.5
20260505024252 6 45 0.0 0.0 0.00 0.03 0.03 86 1015.1
20260505023749 6 45 0.0 0.0 0.00 0.03 0.03 86 1015.0
20260505023246 6 45 1.6 1.6 0.00 0.03 0.03 86 1015.0
20260505022744 6 40 0.0 1.6 0.00 0.03 0.03 86 1015.1
20260505022241 6 20 0.0 0.0 0.00 0.03 0.03 86 1014.9
20260505021737 6 31 0.0 0.0 0.00 0.03 0.03 86 1015.1
20260505021235 6 17 0.0 0.0 0.00 0.03 0.03 86 1015.1
20260505020730 6 20 0.0 0.0 0.00 0.03 0.03 86 1015.1
20260505020225 6 42 0.0 0.0 0.00 0.03 0.03 86 1015.1
20260505015723 6 46 1.6 1.6 0.00 0.03 0.03 85 1014.8
20260505015220 6 258 1.6 1.6 0.00 0.03 0.03 85 1015.1
20260505014717 6 312 1.6 1.6 0.13 0.03 0.03 83 1015.0
20260505014214 6 186 1.6 1.6 0.13 0.03 0.03 81 1014.8
20260505013711 7 168 3.2 3.2 0.00 0.00 0.00 78 1014.8
20260505013208 7 105 3.2 3.2 0.00 0.00 0.00 73 1015.0
20260505012706 9 122 6.4 11.3 0.00 0.00 0.00 63 1014.9
20260505012203 10 86 3.2 3.2 0.00 0.00 0.00 53 1014.6
20260505011659 10 127 3.2 3.2 0.00 0.00 0.00 51 1014.5
20260505011156 10 39 1.6 3.2 0.00 0.00 0.00 51 1014.8
20260505010651 10 124 3.2 3.2 0.00 0.00 0.00 51 1014.5
20260505010149 10 43 1.6 3.2 0.00 0.00 0.00 51 1014.1
20260505005644 10 36 11.3 14.5 0.00 0.00 0.00 51 1013.9
20260505005142 10 2 3.2 4.8 0.00 0.00 0.00 51 1013.9
20260505004638 10 349 1.6 3.2 0.00 0.00 0.00 50 1013.6
20260505004135 11 52 1.6 3.2 0.00 0.00 0.00 49 1013.4
20260505003632 11 69 4.8 4.8 0.00 0.00 0.00 48 1013.5
20260505003130 11 100 3.2 3.2 0.00 0.00 0.00 47 1013.1
20260505002626 11 49 1.6 1.6 0.00 0.00 0.00 44 1013.3
20260505002124 11 91 3.2 3.2 0.00 0.00 0.00 44 1013.3
20260505001621 12 114 4.8 4.8 0.00 0.00 0.00 43 1013.0
20260505001119 12 30 4.8 4.8 0.00 0.00 0.00 43 1012.8
20260505000615 12 310 3.2 3.2 0.00 0.00 0.00 41 1012.9
20260505000113 12 42 0.0 1.6 0.00 0.00 0.00 40 1013.0
20260504235609 12 150 1.6 4.8 0.00 0.00 0.00 39 1012.9
20260504235106 13 44 1.6 1.6 0.00 0.00 0.00 38 1012.8
20260504234603 13 117 1.6 3.2 0.00 0.00 0.00 37 1012.6
20260504234100 13 128 4.8 8.0 0.00 0.00 0.00 37 1013.0
20260504233555 13 93 1.6 3.2 0.00 0.00 0.00 38 1013.1
20260504233052 13 105 4.8 8.0 0.00 0.00 0.00 37 1012.9
20260504232549 13 152 4.8 8.0 0.00 0.00 0.00 38 1013.3
20260504232047 14 117 4.8 4.8 0.00 0.00 0.00 37 1013.3
20260504231543 13 147 4.8 8.0 0.00 0.00 0.00 37 1013.0
20260504231040 13 157 3.2 4.8 0.00 0.00 0.00 37 1012.9
20260504230536 13 131 1.6 1.6 0.00 0.00 0.00 37 1012.8
20260504230035 13 74 1.6 1.6 0.00 0.00 0.00 39 1013.0
20260504225532 13 54 1.6 1.6 0.00 0.00 0.00 39 1013.1
20260504225029 14 124 6.4 8.0 0.00 0.00 0.00 37 1013.0
20260504224525 14 250 4.8 4.8 0.00 0.00 0.00 35 1013.0
20260504224023 15 83 3.2 3.2 0.00 0.00 0.00 34 1012.8
20260504223519 15 340 3.2 3.2 0.00 0.00 0.00 32 1012.4
20260504223015 15 152 3.2 3.2 0.00 0.00 0.00 31 1012.6
20260504222512 15 34 1.6 1.6 0.00 0.00 0.00 30 1012.6
20260504222010 15 34 0.0 0.0 0.00 0.00 0.00 31 1012.8
20260504221507 16 85 3.2 3.2 0.00 0.00 0.00 30 1012.5
20260504221003 16 338 1.6 1.6 0.00 0.00 0.00 30 1012.5
20260504220500 16 14 1.6 3.2 0.00 0.00 0.00 30 1012.5
20260504215957 16 21 0.0 0.0 0.00 0.00 0.00 30 1012.5
20260504215453 16 53 0.0 1.6 0.00 0.00 0.00 31 1012.4
20260504214950 16 26 0.0 1.6 0.00 0.00 0.00 30 1012.5
20260504214446 16 353 1.6 1.6 0.00 0.00 0.00 28 1012.3
20260504213943 16 131 3.2 3.2 0.00 0.00 0.00 27 1012.1
20260504213439 16 52 1.6 3.2 0.00 0.00 0.00 27 1012.5
20260504212937 16 58 0.0 0.0 0.00 0.00 0.00 27 1012.3
20260504212432 16 86 3.2 4.8 0.00 0.00 0.00 26 1012.5
20260504211931 16 215 3.2 3.2 0.00 0.00 0.00 25 1012.5
20260504211426 16 213 4.8 4.8 0.00 0.00 0.00 26 1012.4
20260504210924 16 91 3.2 3.2 0.00 0.00 0.00 27 1012.5
20260504210421 16 80 3.2 3.2 0.00 0.00 0.00 27 1012.3
20260504205918 16 24 1.6 3.2 0.00 0.00 0.00 27 1012.3
20260504205416 16 142 3.2 3.2 0.00 0.00 0.00 27 1012.8
20260504204914 16 46 3.2 3.2 0.00 0.00 0.00 27 1012.4
20260504204412 17 16 6.4 9.7 0.00 0.00 0.00 27 1012.5
20260504203911 17 77 6.4 11.3 0.00 0.00 0.00 26 1012.4
20260504203408 17 235 3.2 3.2 0.00 0.00 0.00 26 1012.6
20260504202903 18 128 4.8 4.8 0.00 0.00 0.00 25 1012.8
20260504202401 20 220 3.2 4.8 0.00 0.00 0.00 23 1012.5